• Join FlightAware (Why Join?)
  • Login
  • US Flag 
05:50AM EDT


 

Airport Tracker/Info


-or-


 

Live Flight TrackerFlight Track Log ✈ EJA982 ✈ 23-Apr-2013 ✈ KBED - KBTV

Flight Track Log - Related Links

Times and Time Zones

All times are in EDT time to prevent confusion due to time zone crossing. See the EJA982 flight status page for this flight to view local times or setup timezone preferences in your user account.

Time Position Orientation Groundspeed Altitude Reporting Facility
EDT Latitude Longitude Course Direction KTS MPH feet Rate Location/Type
07:32PM 42.4667 -71.2500 36° Northeast 194 223 1,500  Level KA90
07:33PM 42.5167 -71.2000 36° Northeast 187 215 3,100 1,800 Climbing KA90
07:34PM 42.5667 -71.2167 346° North 253 291 5,200 3,060 Climbing KA90
07:35PM 42.6567 -71.2403 349° North 317 365 9,500 2,280 Climbing Boston Center
07:36PM 42.7425 -71.2642 348° North 327 376 10,300 1,200 Climbing Boston Center
07:37PM 42.8472 -71.3386 332° Northwest 370 426 12,000 900 Climbing Boston Center
07:38PM 42.9253 -71.4278 320° Northwest 403 464 12,100  Climbing Boston Center
07:39PM 43.0219 -71.5286 323° Northwest 406 467 12,100  Level Boston Center
07:40PM 43.0997 -71.6156 321° Northwest 398 458 12,100  Level Boston Center
07:41PM 43.1964 -71.7194 322° Northwest 398 458 12,100  Level Boston Center
07:42PM 43.2739 -71.8042 321° Northwest 404 465 12,100  Level Boston Center
07:43PM 43.3703 -71.9117 321° Northwest 399 459 12,100 -60 Level Boston Center
07:44PM 43.4478 -71.9969 321° Northwest 399 459 12,000  Descending Boston Center
07:45PM 43.5356 -72.0906 322° Northwest 399 459 12,100  Climbing Boston Center
07:46PM 43.6192 -72.1878 320° Northwest 399 459 12,000  Descending Boston Center
07:47PM 43.7069 -72.2822 322° Northwest 399 459 12,100  Climbing Boston Center
07:48PM 43.7967 -72.3825 321° Northwest 405 466 12,100  Level Boston Center
07:49PM 43.8800 -72.4775 321° Northwest 405 466 12,100 -60 Level Boston Center
07:50PM 43.9717 -72.5814 321° Northwest 395 455 12,000 -60 Descending Boston Center
07:51PM 44.0569 -72.6800 320° Northwest 395 455 12,000 -240 Level Boston Center
07:52PM 44.1442 -72.7786 321° Northwest 395 455 11,600 -540 Descending Boston Center
07:53PM 44.2208 -72.8658 321° Northwest 390 449 11,000 -780 Descending Boston Center
07:54PM 44.2978 -72.9186 334° Northwest 333 383 10,100 -1,080 Descending Boston Center
07:56PM 44.3769 -72.9658 337° Northwest 294 338 8,700 -1,500 Descending Boston Center
07:57PM 44.4494 -73.0100 336° Northwest 289 333 6,900 -1,740 Descending Boston Center
07:58PM 44.5139 -73.0717 326° Northwest 275 316 5,300 -1,500 Descending Boston Center
07:59PM 44.5717 -73.1453 318° Northwest 263 303 3,900 -1,200 Descending Boston Center
08:00PM 44.5964 -73.2097 298° West 212 244 2,900 -1,020 Descending Boston Center
08:01PM 44.5564 -73.2442 212° Southwest 156 180 1,900 -720 Descending Boston Center
08:02PM 44.5169 -73.2261 162° South 146 168 1,500 -600 Descending Boston Center
08:03PM 44.4944 -73.1881 130° Southeast 132 152 800 -600 Descending Boston Center
08:04PM 44.4694 -73.1586 140° Southeast 126 145 400 -240 Descending Boston Center
08:05PM 44.4675 -73.1497 107° East 77 89 400  Level Boston Center
08:06PM 44.4653 -73.1528 224° Southwest 38 44 400  Level Boston Center